Flag for U.S.A. Weather past 2 weeks in Waterbury, Connecticut, U.S.A.

Now
70 °F

Overcast.


Feels Like: 70 °F
Forecast: 67 / 82 °F
Wind: No wind

Location: Oxford

Current Time: Aug 31, 2014 at 6:40:43 AM

Latest Report: Aug 31, 2014 at 5:52 AM


Visibility: 10 mi

Pressure: 30.14 "Hg

Humidity: 83%

Dew point: 64 °F

Location of WaterburyLocation

Historic Weather in Waterbury — Graph

°F

Waterbury temperature yesterday

Maximum temperature yesterday: 73 °F (at 4:45 PM)
Minimum temperature yesterday: 54 °F (at 3:15 AM)
Average temperature yesterday: 62 °F

Past Weeks' High & Low Weather Summary

 TemperatureHumidityPressure
High86 °F (Aug 27, 2:52 PM)94% (Aug 20, 4:15 AM)30.31 "Hg (Aug 20, 4:15 AM)
Low52 °F (Aug 16, 5:15 AM)40% (Aug 26, 2:52 PM)29.85 "Hg (Aug 17, 2:45 PM)
Average65 °F73%30.07 "Hg
* Reported Aug 16 5:15 AM — Aug 31 5:35 AM, Waterbury, Weather by CustomWeather, © 2014

Note: Actual official high and low records may vary slightly from our data, if they occured in-between our weather recording intervals... More about our weather records

Advertising

Waterbury weather history for previous 24 hours

 ConditionsComfort  
Time TempWeatherWind HumidityBarometerVisibility
5:35 AM
Aug 31
70 °FOvercast.3 mph83%30.14 "Hg10 mi
5:15 AM70 °FOvercast.6 mph83%30.15 "Hg10 mi
4:55 AM70 °FMostly cloudy.5 mph83%30.15 "Hg10 mi
4:35 AM70 °FMostly cloudy.5 mph83%30.15 "Hg10 mi
4:15 AM70 °FOvercast.6 mph83%30.15 "Hg10 mi
3:55 AM70 °FOvercast.5 mph83%30.15 "Hg10 mi
3:35 AM70 °FOvercast.5 mph78%30.16 "Hg10 mi
3:15 AM70 °FOvercast.6 mph78%30.16 "Hg10 mi
2:55 AM70 °FOvercast.6 mph78%30.16 "Hg10 mi
2:35 AM70 °FOvercast.3 mph78%30.17 "Hg10 mi
2:15 AM70 °FOvercast.3 mph78%30.17 "Hg10 mi
1:55 AM70 °FOvercast.7 mph78%30.16 "Hg10 mi
1:35 AM70 °FOvercast.3 mph78%30.17 "Hg10 mi
1:15 AM70 °FOvercast.5 mph78%30.18 "Hg10 mi
12:55 AM70 °FOvercast.7 mph78%30.19 "Hg10 mi
12:35 AM68 °FOvercast.6 mph83%30.19 "Hg10 mi
12:15 AM68 °FOvercast.6 mph83%30.18 "Hg10 mi
11:55 PM
Aug 30
68 °FMostly cloudy.7 mph83%30.18 "Hg10 mi
11:35 PM68 °FMostly cloudy.6 mph83%30.18 "Hg10 mi
11:15 PM68 °FOvercast.7 mph83%30.19 "Hg10 mi
10:55 PM68 °FOvercast.8 mph78%30.19 "Hg10 mi
10:35 PM68 °FOvercast.8 mph78%30.19 "Hg10 mi
10:15 PM68 °FOvercast.7 mph78%30.19 "Hg10 mi
9:55 PM68 °FMostly cloudy.6 mph78%30.19 "Hg10 mi
9:35 PM68 °FMostly cloudy.7 mph78%30.20 "Hg10 mi
9:15 PM68 °FMostly cloudy.6 mph78%30.19 "Hg10 mi
8:55 PM68 °FMostly cloudy.6 mph78%30.19 "Hg10 mi
6:45 PM70 °FBroken clouds.8 mph73%30.19 "Hg10 mi
5:45 PM72 °FBroken clouds.8 mph65%30.21 "Hg10 mi
4:45 PM73 °FPartly sunny.16 mph65%30.21 "Hg10 mi
2:52 PM72 °FOvercast.9 mph61%30.25 "Hg10 mi
11:55 AM72 °FPartly sunny.9 mph61%30.28 "Hg10 mi
11:35 AM70 °FBroken clouds.8 mph64%30.29 "Hg10 mi
11:15 AM70 °FBroken clouds.8 mph69%30.29 "Hg10 mi
10:55 AM70 °FMostly cloudy.9 mph69%30.29 "Hg10 mi
10:35 AM70 °FBroken clouds.14 mph64%30.29 "Hg10 mi
10:15 AM70 °FBroken clouds.9 mph69%30.30 "Hg10 mi
9:55 AM68 °FOvercast.12 mph69%30.30 "Hg10 mi
9:35 AM66 °FOvercast.9 mph78%30.30 "Hg10 mi
9:15 AM66 °FOvercast.9 mph73%30.30 "Hg10 mi
8:55 AM66 °FPartly sunny.8 mph73%30.31 "Hg10 mi
8:35 AM64 °FSunny.7 mph78%30.30 "Hg10 mi
7:55 AM61 °FSunny.6 mph83%30.30 "Hg10 mi
7:35 AM59 °FSunny.6 mph82%30.31 "Hg10 mi
7:15 AM55 °FClear.3 mph88%30.31 "Hg10 mi
6:55 AM55 °FClear.No wind82%30.31 "Hg10 mi
6:35 AM55 °FClear.No wind82%30.31 "Hg4 mi
6:15 AM55 °FClear.No wind82%30.31 "Hg10 mi
Weather by CustomWeather, © 2014

See weather overviewHow to use our weather pages